This is the latest recevied weather packets stored in our database for station/object N3WPH. If no packets are shown the sender has not sent any weather packets the latest 10 day(s).
| Time | Temp. | Humidity | Pressure | Rain* | Wind** | Luminosity | Snow |
|---|---|---|---|---|---|---|---|
| 1777777844 | 6.67° C | 60% | 1013 hPa | 0 mm | - | 0 W/m² | - |
| 1777777539 | 6.67° C | 63% | 1013.1 hPa | 0 mm | - | 0 W/m² | - |
| 1777777237 | 7.22° C | 64% | 1013.1 hPa | 0 mm | - | 0 W/m² | - |
| 1777776934 | 7.22° C | 63% | 1013.2 hPa | 0 mm | - | 0 W/m² | - |
| 1777776632 | 7.22° C | 63% | 1013.1 hPa | 0 mm | - | 0 W/m² | - |
| 1777776327 | 7.22° C | 63% | 1013.2 hPa | 0 mm | - | 0 W/m² | - |
| 1777776025 | 7.22° C | 62% | 1013.1 hPa | 0 mm | - | 0 W/m² | - |
| 1777775721 | 7.22° C | 63% | 1013.2 hPa | 0 mm | - | 0 W/m² | - |
| 1777775419 | 7.22° C | 61% | 1013.2 hPa | 0 mm | - | 0 W/m² | - |
| 1777775115 | 7.22° C | 62% | 1013.2 hPa | 0 mm | - | 0 W/m² | - |
| 1777774809 | 7.22° C | 61% | 1013.1 hPa | 0 mm | - | 0 W/m² | - |
| 1777774506 | 7.22° C | 59% | 1013.2 hPa | 0 mm | - | 0 W/m² | - |
| 1777774203 | 7.22° C | 61% | 1013.3 hPa | 0 mm | - | 0 W/m² | - |
| 1777773901 | 7.22° C | 60% | 1013.2 hPa | 0 mm | - | 0 W/m² | - |
| 1777773597 | 7.22° C | 60% | 1013.3 hPa | 0 mm | - | 0 W/m² | - |
| 1777773294 | 7.22° C | 60% | 1013.3 hPa | 0 mm | - | 0 W/m² | - |
| 1777772990 | 7.78° C | 61% | 1013 hPa | 0 mm | - | 0 W/m² | - |
| 1777772687 | 7.78° C | 59% | 1013 hPa | 0 mm | - | 0 W/m² | - |
| 1777772385 | 7.78° C | 57% | 1013 hPa | 0 mm | - | 0 W/m² | - |
| 1777772082 | 7.78° C | 60% | 1013 hPa | 0 mm | - | 0 W/m² | - |
| 1777771779 | 7.78° C | 59% | 1012.9 hPa | 0 mm | - | 0 W/m² | - |
| 1777771478 | 7.78° C | 58% | 1012.8 hPa | 0 mm | - | 0 W/m² | - |
| 1777771173 | 7.78° C | 56% | 1012.9 hPa | 0 mm | - | 0 W/m² | - |
| 1777770870 | 7.78° C | 58% | 1012.8 hPa | 0 mm | - | 0 W/m² | - |
| 1777770567 | 7.78° C | 56% | 1012.9 hPa | 0 mm | - | 0 W/m² | - |
* Rain latest hour (hover to see other rain measurements)
** Current wind speed in m/s (hover to see current wind gust speed)